Regional Weather Roundup
Issued by NWS

Home | Current Version | Previous Version | Text Only | Print | Product List | Glossary Off
Versions: 1 2 3 4 5 6 7 8 9 10 11 12 13 14 15 16 17 18 19 20 21 22 23 24 25 26 27 28 29 30 31 32 33 34 35 36 37 38 39 40 41 42 43 44 45 46 47

000
ASUS43 KDMX 232307
RWRIA

WEATHER ROUNDUP FOR IOWA
NATIONAL WEATHER SERVICE DES MOINES IA
600 PM CDT TUE SEP 23 2014

NOTE: "FAIR" INDICATES FEW OR NO CLOUDS BELOW 12,000 FEET WITH NO
SIGNIFICANT WEATHER AND/OR OBSTRUCTIONS TO VISIBILITY.

* - THESE STATIONS ARE NOT NWS STATIONS...THUS NOT UNDER NWS
QUALITY CONTROL.  THEY ALSO DO NOT REPORT WEATHER SUCH
AS PRECIPITATION OR FOG.

IAZ001>003-012>014-020>022-031>034-043>046-240000-
   NORTHWEST IOWA

CITY           SKY/WX    TMP DP  RH WIND       PRES   REMARKS
CARROLL *      MOSUNNY   68  52  56 S12G22    30.12F
CHEROKEE *     CLOUDY    63  57  82 SE7       30.09S
DENISON *      PTSUNNY   68  55  64 S8G17     30.08S
LE MARS *      CLOUDY    63  59  88 SE8G15    30.07S
ORANGE CITY *  LGT RAIN  63  55  77 SE8       30.07F
SHELDON *      CLOUDY    61  54  77 SE10G18   30.07F
SIOUX CITY     CLOUDY    67  58  72 SE8       30.05S
SPENCER        CLOUDY    62  53  72 SE14      30.11F
STORM LAKE *   CLOUDY    63  63 100 SE12      30.10F
$$

IAZ055>058-069>071-079>083-090>094-240000-
   SOUTHWEST IOWA

CITY           SKY/WX    TMP DP  RH WIND       PRES   REMARKS
ATLANTIC *     MOSUNNY   70  54  56 SE16      30.11S
AUDUBON *      SUNNY     68  52  56 SE9G16    30.13F
CLARINDA *     DRIZZLE   64  59  82 S9        30.16R
COUNCIL BLFS * MOSUNNY   66  52  59 S17G23    30.10R
CRESTON *      MOSUNNY   66  55  68 SE9G15    30.15F
HARLAN  *      SUNNY     70  55  60 S15G24    30.14R
LAMONI         CLOUDY    66  53  63 VRB5      30.17S
RED OAK *      MOSUNNY   70  55  60 S12G17    30.13R
SHENANDOAH *   PTSUNNY   66  57  72 S13       30.14R
$$

IAZ047>049-059>061-072>074-084-240000-
   CENTRAL IOWA

CITY           SKY/WX    TMP DP  RH WIND       PRES   REMARKS
AMES           CLOUDY    68  52  56 SE13      30.17S
ANKENY *       SUNNY     68  55  64 SE9       30.17S
CHARITON *     SUNNY     68  54  60 SE7G13    30.19R
DES MOINES     CLOUDY    70  53  54 SE9       30.17S
GRINNELL*      CLOUDY    68  50  52 SE9       30.20S
KNOXVILLE *    SUNNY     68  54  60 SE7       30.18S
MARSHALLTOWN   CLOUDY    68  49  50 SE8       30.18S
PELLA *        CLOUDY    68  52  56 SE7       30.20S
PERRY *          N/A     70  52  52 SE13G20   30.15S
$$

IAZ004>006-015-016-023>025-035-036-240000-
   NORTH CENTRAL IOWA

CITY           SKY/WX    TMP DP  RH WIND       PRES   REMARKS
ALGONA *       LGT RAIN  61  57  88 S6G14     30.16R
CLARION *      SUNNY     66  48  52 S9        30.16S
ESTHERVILLE    CLOUDY    60  56  86 S12       30.13F
FORT DODGE *   CLOUDY    64  54  68 SE9       30.15F
MASON CITY     CLOUDY    66  50  56 S9        30.18S
FOREST CITY *  SUNNY     68  50  52 SE10      30.16S
IOWA FALLS *     N/A     68  48  49 SE8       30.19S
$$

IAZ007>011-017>019-026>030-037>042-050>054-066-240000-
   NORTHEAST IOWA

CITY           SKY/WX    TMP DP  RH WIND       PRES   REMARKS
CEDAR RAPIDS   PTSUNNY   68  50  52 S7        30.21F
CHARLES CITY * MOSUNNY   68  48  49 S9        30.20S
CLINTON *      PTCLDY    72  46  40 S3        30.26F
DECORAH *      SUNNY     66  50  55 S6        30.21S
DUBUQUE        PTCLDY    69  48  47 SE7       30.25S
MONTICELLO *   SUNNY     70  48  46 CALM      30.22S
OELWEIN *      SUNNY     68  50  52 SE9       30.21F
WATERLOO       CLOUDY    68  47  46 S8        30.19S
$$

IAZ064-065-067-068-078-240000-
   EAST CENTRAL IOWA

CITY           SKY/WX    TMP DP  RH WIND       PRES   REMARKS
DAVENPORT      PTCLDY    72  43  35 SE8       30.24S
IOWA CITY      PTSUNNY   68  51  54 S7        30.23S
MT. PLEASANT * PTSUNNY   70  48  46 S3        30.23R
MUSCATINE *    SUNNY     73  46  38 S6        30.22S
QUAD CITIES    PTCLDY    71  47  42 S6        30.23S
$$

IAZ062-063-075>077-085>089-095>099-240000-
   SOUTHEAST IOWA

CITY           SKY/WX    TMP DP  RH WIND       PRES   REMARKS
BURLINGTON     PTSUNNY   71  48  43 S7        30.23S
FAIRFIELD *    SUNNY     66  54  63 SE7       30.22S
FORT MADISON * SUNNY     72  52  49 CALM      30.23S
KEOKUK *       SUNNY     70  52  52 S5        30.22S
OSKALOOSA *      N/A     68  52  56 S9        30.20F
CENTERVILLE *  SUNNY     66  55  68 SE5       30.21S
OTTUMWA        PTSUNNY   67  52  58 SE8       30.20F
WASHINGTON *   SUNNY     68  52  56 S3        30.22S
$$

ABBREVIATIONS USED IN REMARKS
   TC - TEMPERATURES IN CELSIUS
  WCI - WIND CHILL INDEX
   HX - HEAT INDEX
  VSB - VISIBILITY
$$




USA.gov is the U.S. government's official web portal to all federal, state and local government web resources and services.